Hourly Data Report for September 27, 2017

All times are specified in Local Standard Time (LST). Add 1 hour to adjust for Daylight Saving Time where and when it is observed.

FREDERICTON
NEW BRUNSWICK

45°52'08.000" N
66°32'14.000" W
20.70 m
8101505
71700
YFC

Download Data

Hourly Data (September 2017)
Hourly Data Report for September 27, 2017
Temp Definition
°C
Dew Point Temp Definition
°C
Rel Hum Definition
%
Wind Dir Definition
10's deg

Wind Spd Definition
km/h
Visibility Definition
km
Stn Press Definition
kPa
Hmdx Definition


Wind Chill Definition


Weather Definition


TIME
00:00 Legend Double Dagger 14.9 12.1 83 4 18 16.1 101.39     LegendNANA
01:00 Legend Double Dagger 15.1 12.5 85 4 17 16.1 101.43     LegendNANA
02:00 Legend Double Dagger 15.1 12.6 85 3 13 16.1 101.37     LegendNANA
03:00 Legend Double Dagger 15.0 12.5 85 4 15 16.1 101.34     LegendNANA
04:00 Legend Double Dagger 14.9 12.4 85 3 15 16.1 101.31     LegendNANA
05:00 Legend Double Dagger 14.9 12.4 85 4 15 16.1 101.27     LegendNANA
06:00 Legend Double Dagger 14.8 12.7 87 5 11 16.1 101.23     LegendNANA
07:00 Legend Double Dagger 14.5 13.1 91 5 9 16.1 101.20     LegendNANA
08:00 Legend Double Dagger 14.5 13.6 94 6 8 6.4 101.18     Fog
09:00 Legend Double Dagger 14.6 14.1 97 1 8 1.6 101.14     Fog
10:00 Legend Double Dagger 15.0 14.5 97 LegendMM 5 1.2 101.09     Fog
11:00 Legend Double Dagger 15.7 15.1 96 LegendMM 4 1.6 101.03     Fog
12:00 Legend Double Dagger 17.0 15.5 91 LegendMM 4 16.1 100.96     LegendNANA
13:00 Legend Double Dagger 20.4 17.1 81 21 5 16.1 100.80 26   LegendNANA
14:00 Legend Double Dagger 23.8 18.4 71 17 15 16.1 100.67 30   LegendNANA
15:00 Legend Double Dagger 25.2 18.8 67 18 21 16.1 100.61 32   LegendNANA
16:00 Legend Double Dagger 23.9 18.8 73 17 17 16.1 100.53 31   LegendNANA
17:00 Legend Double Dagger 23.3 18.9 76 18 15 16.1 100.43 30   LegendNANA
18:00 Legend Double Dagger 22.1 18.7 81 19 9 16.1 100.38 29   LegendNANA
19:00 Legend Double Dagger 19.8 17.6 87 17 17 16.1 100.38     LegendNANA
20:00 Legend Double Dagger 18.6 16.8 89 18 15 16.1 100.30     LegendNANA
21:00 Legend Double Dagger 17.9 16.3 90 23 9 16.1 100.27     LegendNANA
22:00 Legend Double Dagger 20.1 18.3 89 20 26 16.1 100.22 26   LegendNANA
23:00 Legend Double Dagger 20.5 18.3 87 30 11 16.1 100.36 27   LegendNANA

Notes on Data Quality.

Legend

  • E = Estimated
  • M = Missing
  • NA = Not Available
  • ‡ = Partner data that is not subject to review by the National Climate Archives
Date modified: